User: anonymous   Login
Location: Lynch Observatory
(39.9540°N, 75.1861°W)
Time: 15:14:51
(UTC-04:00)
Language:

NANOSAT C BR1 - Orbit

View from above orbital plane
View from above orbital plane
View from above satellite
View from above satellite

Ground track
Ground track

The orbit data is extracted from the following two-line orbital elements,

1 40024U 14033Q   24112.87357547  .00023988  00000-0  18375-2 0  9993
2 40024  98.0560  82.7149 0007261  11.8800 348.2593 15.01830546534790
Epoch (UTC): 21 April 2024 20:57:56
Eccentricity: 0.0007261
inclination: 98.0560°
perigee height: 556 km
apogee height: 566 km
right ascension of ascending node: 82.7149°
argument of perigee: 11.8800°
revolutions per day: 15.01830546
mean anomaly at epoch: 348.2593°
orbit number at epoch: 53479

The dashed part of the orbit path shows where the satellite is in the earth's shadow,  

DLR